Starlink 35913

operational
NORAD ID: 67004 Int'l Des: 2025-293 Owner: SPXS Country: US Constellation: starlink
LEOCIRCULAR

关于 Starlink 35913

正在加载描述...

实时位置

正在加载3D地球...

即将过境

高度历史

Altitude vs Time

uPlot chart will show altitude changes over time

两行轨道根数

1 67004C 25293B 25346.10256944 -.00524850 00000+0 -74727-3 0 3460
2 67004 69.9976 325.9314 0004505 268.3709 190.4770 16.05848663 17
Epoch: Dec 12, 2025 • Age: 54 hours

当前状态

高度 285.8 km
速度 7.74 km/s
星下点 -65.31°S, 18.72°E
发射日期 Dec 10, 2025
运行时间 3 days
类型 internet

技术详情

分类 Payload
质量 575.00 kg
干质量 530.00 kg
总质量 575.00 kg
长度 0.30 m
直径 4.10 m
跨度 29.00 m
形状 Box + pan
制造商 SPXS
平台类型 Starlink V2MO
阶段状态 In Orbit
所有者/国家 SPXS/US

大型星座

Loading constellations...